Location: Donzy-le-Pr�
(47.3659°N, 3.1107°E)
Time: 11:46:00
(UTC+00:00)

IRS-1C Rocket - Pass Details

Date: 03 March 2021
Orbit: 800 x 806 km, 99.0° (Epoch: 22 April)

Event Time Altitude Azimuth Distance (km) Brightness Sun altitude
Rises 18:04:50 0° 160° (SSE) 3,303 7.1 -5.7°
Reaches altitude 10° 18:07:09 10° 160° (SSE) 2,377 6.4 -6.1°
Maximum altitude 18:12:25 82° 73° (ENE) 819 4.1 -7.0°
Drops below altitude 10° 18:17:43 10° 347° (NNW) 2,398 6.7 -7.9°
Sets 18:20:04 0° 346° (NNW) 3,334 7.5 -8.3°
